[[{"header":{"parameterUnit":"m.s-1","parameterCategory":1,"la1":30.2991,"la2":30.254,"lo1":-89.0895,"lo2":-89.0444,"dy":0.0017,"dx":0.0017,"nx":28,"ny":28,"refTime":"2024-05-07T09:00:00:Z","depth":0,"parameterNumber":2,"parameterNumberName":"U-component_of_WINDS"},"data":[0,0,0,0,0,0,0,0,0,0,0,0,0,0,0,0,0,0,0,0,0,0,0,0,0,0,0,0,0,0,0,0,0,0,0,0,0,0,0,0,0,0,0,0,0,0,0,0,0,0,0,0,0,0,0,0,0,0,-2.028,-2.0281,0,-2.0351,-2.0352,-2.0353,-2.0346,-2.0345,-2.0344,-2.0343,-2.0417,-2.042,-2.0423,0,0,0,0,0,0,0,0,0,0,0,0,0,-2.014,-2.0143,-2.028,-2.0281,-2.0282,-2.0351,-2.0352,-2.0353,-2.0346,-2.0345,-2.0344,-2.0342,-2.0416,-2.042,-2.0424,0,0,0,0,0,0,0,0,0,0,0,0,0,-2.0205,-2.0144,-2.028,-2.0287,-2.0288,-2.0351,-2.0352,-2.0354,-2.0347,-2.0345,-2.0343,-2.0342,-2.0415,-2.042,-2.0424,-2.0486,0,0,-2.0438,-2.044,0,0,0,0,0,0,0,0,-2.0202,-2.021,-2.0285,-2.0286,-2.0288,-2.0338,-2.033,-2.0398,-2.0347,-2.0324,-2.0343,-2.0341,-2.0392,-2.0399,-2.0416,-2.0489,-2.0492,-2.0438,-2.0441,-2.0443,-2.0444,0,0,0,0,0,0,0,-2.0197,-2.0207,-2.0308,-2.0286,-2.0288,-2.0287,-2.0294,-2.0343,-2.0367,-2.0326,-2.0326,-2.0334,-2.0393,-2.0411,-2.0418,-2.0493,-2.0438,-2.0442,-2.0445,-2.0447,-2.0622,-2.0623,0,0,0,0,0,0,-2.0191,-2.0204,-2.0306,-2.0311,-2.024,-2.0291,-2.0299,-2.0324,-2.0366,-2.0371,-2.0336,-2.0334,-2.0405,-2.0412,-2.042,-2.0495,-2.0443,-2.0447,-2.045,-2.062,-2.0622,-2.0624,0,0,0,0,0,0,-2.0188,-2.02,-2.0303,-2.0257,-2.027,-2.0295,-2.0323,-2.0326,-2.0344,-2.0374,-2.0378,-2.035,-2.0404,-2.0414,-2.0469,-2.0498,-2.0449,-2.0453,-2.0617,-2.062,-2.0623,-2.0646,0,0,0,0,0,0,-2.0184,-2.0199,-2.0222,-2.0258,-2.0273,-2.0351,-2.0325,-2.0329,-2.0352,-2.035,-2.0388,-2.0393,-2.0403,-2.0463,-2.0474,-2.0503,-2.0457,-2.0615,-2.0619,-2.0622,-2.0643,-2.0649,-2.0655,0,0,0,0,0,-2.0179,-2.0226,-2.0223,-2.0236,-2.0302,-2.0352,-2.0361,-2.0371,-2.0354,-2.0378,-2.0397,-2.0392,-2.0493,-2.0468,-2.0481,-2.0512,-2.0613,-2.0618,-2.0622,-2.064,-2.0648,-2.0655,0,0,0,0,0,0,-2.0193,-2.023,-2.0228,-2.0288,-2.0317,-2.0351,-2.0381,-2.0379,-2.0414,-2.0411,-2.0423,-2.0432,-2.0488,-2.0506,-2.0478,-2.0574,-2.0551,-2.0558,-2.056,-2.0568,-2.0574,-2.0569,-2.0461,0,0,0,0,0,-2.0203,-2.024,-2.0271,-2.0321,-2.0336,-2.0356,-2.0378,-2.0384,-2.0415,-2.0427,-2.045,-2.0481,-2.052,-2.0545,-2.0582,-2.0646,-2.0654,-2.0673,-2.0679,-2.0684,-2.069,-2.0725,-2.0734,-2.0638,-2.0638,-2.0638,0,0,-2.0224,-2.0249,-2.0272,-2.0325,-2.0348,-2.0387,-2.0366,-2.0409,-2.0438,-2.0434,-2.0488,-2.0506,-2.0541,-2.0601,-2.0628,-2.0617,-2.0719,-2.069,-2.0693,-2.0697,-2.0731,-2.074,-2.0748,-2.0641,-2.0641,-2.064,0,0,-2.0283,-2.0305,-2.0349,-2.0373,-2.0409,-2.0422,-2.0433,-2.0467,-2.0479,-2.0533,-2.0531,-2.0567,-2.0633,-2.0659,-2.068,-2.075,-2.0746,-2.0761,-2.0793,-2.0827,-2.0835,-2.0842,-2.0867,-2.0875,-2.0767,-2.0767,-2.0767,0,-2.0305,-2.0363,-2.0373,-2.0415,-2.0439,-2.0437,-2.0482,-2.0505,-2.0551,-2.0567,-2.0554,-2.0638,-2.0662,-2.0728,-2.0745,-2.0762,-2.0775,-2.0757,-2.0833,-2.084,-2.0846,-2.087,-2.088,-2.0769,-2.0769,-2.0769,-2.0768,0,-2.0389,-2.0429,-2.0461,-2.0504,-2.0532,-2.0575,-2.0592,-2.0619,-2.0622,-2.0637,-2.0693,-2.0721,-2.0765,-2.0781,-2.0785,-2.0848,-2.084,-2.083,-2.0807,-2.0857,-2.088,-2.0889,-2.0771,-2.0771,-2.077,-2.077,0,0,-2.0457,-2.0507,-2.0518,-2.0538,-2.0578,-2.0609,-2.0654,-2.0696,-2.0718,-2.075,-2.0788,-2.0845,-2.0836,-2.0861,-2.0867,-2.0898,-2.0951,-2.0884,-2.0885,-2.0896,-2.1023,-2.1031,-2.1041,-2.0949,-2.0951,-2.0953,-2.102,0,-2.052,-2.0597,-2.0608,-2.0676,-2.0714,-2.0713,-2.0752,-2.0781,-2.0796,-2.0831,-2.0849,-2.0889,-2.0874,-2.0889,-2.0919,-2.0938,-2.0977,-2.0934,-2.0985,-2.0987,-2.0976,-2.1053,-2.1061,-2.1123,-2.1029,-2.1031,-2.1032,0,-2.0603,-2.0637,-2.0709,-2.0744,-2.076,-2.0795,-2.0834,-2.0868,-2.0901,-2.091,-2.0938,-2.0941,-2.0988,-2.0963,-2.1028,-2.0998,-2.102,-2.1033,-2.1036,-2.1041,-2.1012,-2.106,-2.1143,-2.1153,-2.1046,-2.1045,-2.1044,0,-2.0646,-2.071,-2.0762,-2.0779,-2.0821,-2.0845,-2.0864,-2.0895,-2.092,-2.0955,-2.0972,-2.1012,-2.1034,-2.1065,-2.108,-2.106,-2.1144,-2.112,-2.1154,-2.1153,-2.1171,-2.117,-2.1259,-2.1185,-2.1185,-2.1185,-2.1185,0,-2.0715,-2.076,-2.0782,-2.0814,-2.0864,-2.0876,-2.0926,-2.0944,-2.0972,-2.1008,-2.101,-2.1044,-2.1061,-2.1097,-2.1109,-2.1161,-2.1171,-2.1181,-2.1183,-2.1181,-2.1179,-2.1195,-2.1191,-2.1188,-2.1187,-2.1186,-2.1186,0,-2.0772,-2.0789,-2.0845,-2.088,-2.089,-2.0925,-2.0955,-2.0987,-2.1002,-2.1048,-2.1059,-2.1084,-2.1127,-2.1145,-2.1198,-2.1206,-2.1266,-2.1266,-2.1255,-2.1256,-2.1288,-2.1285,-2.139,-2.1405,-2.1322,-2.1322,-2.1323,0,-2.0815,-2.0849,-2.0887,-2.0911,-2.093,-2.0969,-2.0994,-2.1008,-2.1034,-2.1075,-2.1102,-2.1145,-2.118,-2.125,-2.1273,-2.1314,-2.1314,-2.1348,-2.132,-2.1317,-2.1315,-2.1313,-2.1317,-2.1354,-2.1354,-2.1355,-2.1356,0,-2.0889,-2.0895,-2.0931,-2.0971,-2.1001,-2.1032,-2.1063,-2.1083,-2.1102,-2.1131,-2.1175,-2.1203,-2.1257,-2.1301,-2.1343,-2.1363,-2.1363,-2.1364,-2.1374,-2.1372,-2.1364,-2.1369,-2.1269,-2.1362,-2.1361,-2.1361,-2.136,-2.136,-2.094,-2.097,-2.1002,-2.1043,-2.1067,-2.1096,-2.1128,-2.1147,-2.1184,-2.1229,-2.1235,-2.1282,-2.1315,-2.1372,-2.1394,-2.1432,-2.1424,-2.1438,-2.1442,-2.1445,-2.1447,-2.1358,-2.144,-2.144,-2.144,-2.144,-2.144,0,-2.1015,-2.1035,-2.1072,-2.1115,-2.1147,-2.1143,-2.1178,-2.1205,-2.1246,-2.1277,-2.1312,-2.1363,-2.1405,-2.1431,-2.1474,-2.1499,-2.1501,-2.151,-2.1509,-2.1513,-2.1452,-2.1439,-2.1509,-2.1509,-2.1509,-2.1509,-2.1509,-2.1509,-2.1057,-2.1109,-2.1119,-2.1183,-2.1204,-2.125,-2.127,-2.1297,-2.1321,-2.1378,-2.1413,-2.143,-2.1459,-2.1504,-2.1543,-2.155,-2.1566,-2.1576,-2.1582,-2.1525,-2.1518,-2.1511,-2.1499,-2.1579,-2.1579,-2.164,-2.1641,-2.1641]},{"header":{"parameterUnit":"m.s-1","parameterCategory":1,"la1":30.2991,"la2":30.254,"lo1":-89.0895,"lo2":-89.0444,"dy":0.0017,"dx":0.0017,"nx":28,"ny":28,"refTime":"2024-05-07T09:00:00:Z","depth":0,"parameterNumber":3,"parameterNumberName":"V-component_of_WINDS"},"data":[0,0,0,0,0,0,0,0,0,0,0,0,0,0,0,0,0,0,0,0,0,0,0,0,0,0,0,0,0,0,0,0,0,0,0,0,0,0,0,0,0,0,0,0,0,0,0,0,0,0,0,0,0,0,0,0,0,0,4.603,4.603,0,4.6082,4.6083,4.6083,4.6043,4.6041,4.604,4.6038,4.6088,4.6091,4.6094,0,0,0,0,0,0,0,0,0,0,0,0,0,4.5892,4.5895,4.603,4.603,4.6031,4.6082,4.6083,4.6083,4.6043,4.6041,4.6039,4.6037,4.6087,4.609,4.6094,0,0,0,0,0,0,0,0,0,0,0,0,0,4.5949,4.5896,4.603,4.6017,4.6017,4.6082,4.6083,4.6084,4.6044,4.6041,4.6039,4.6036,4.6086,4.609,4.6094,4.6173,0,0,4.6108,4.611,0,0,0,0,0,0,0,0,4.5946,4.5954,4.6018,4.6018,4.6018,4.6053,4.6052,4.6113,4.6044,4.6033,4.6038,4.6035,4.6078,4.6083,4.6098,4.6176,4.6178,4.6108,4.6111,4.6113,4.6114,0,0,0,0,0,0,0,4.5942,4.5951,4.605,4.6019,4.6019,4.6008,4.6013,4.6064,4.6069,4.6034,4.6031,4.6038,4.6077,4.6094,4.6099,4.6178,4.6108,4.6112,4.6115,4.6116,4.6323,4.6326,0,0,0,0,0,0,4.5939,4.5948,4.6049,4.6052,4.5975,4.6013,4.6019,4.6045,4.6069,4.607,4.604,4.6036,4.6088,4.6094,4.6101,4.6195,4.6113,4.6117,4.6119,4.632,4.6324,4.6327,0,0,0,0,0,0,4.5937,4.5949,4.6047,4.5999,4.6011,4.6018,4.6047,4.6047,4.6064,4.6074,4.6074,4.6057,4.6086,4.6095,4.6156,4.6196,4.6119,4.6123,4.6317,4.6321,4.6325,4.6384,0,0,0,0,0,0,4.5933,4.5948,4.5979,4.6001,4.6014,4.6102,4.605,4.605,4.6072,4.6067,4.6089,4.609,4.6085,4.615,4.616,4.6201,4.6126,4.6313,4.6319,4.6324,4.6379,4.639,4.64,0,0,0,0,0,4.5928,4.5992,4.5981,4.5993,4.6053,4.6104,4.6112,4.6105,4.6075,4.6106,4.6112,4.609,4.619,4.6156,4.6168,4.6211,4.6311,4.6317,4.6323,4.6374,4.6388,4.6399,0,0,0,0,0,0,4.5974,4.5995,4.5982,4.6056,4.6079,4.6097,4.6136,4.612,4.6151,4.6145,4.6134,4.6139,4.6204,4.6213,4.6175,4.6288,4.6246,4.6255,4.628,4.6293,4.6303,4.63,4.613,0,0,0,0,0,4.5993,4.6034,4.605,4.6113,4.6125,4.6129,4.6151,4.6144,4.6167,4.6176,4.6187,4.6209,4.6246,4.627,4.6304,4.638,4.6384,4.6415,4.6426,4.6434,4.6442,4.6483,4.6497,4.6348,4.6348,4.6348,0,0,4.6031,4.6048,4.6075,4.6123,4.614,4.6182,4.6137,4.6183,4.6214,4.6183,4.6242,4.625,4.6274,4.6343,4.6374,4.6353,4.6484,4.6442,4.6449,4.6452,4.6491,4.6505,4.6518,4.6352,4.6351,4.6351,0,0,4.6124,4.6141,4.6196,4.6214,4.6241,4.6243,4.6256,4.6278,4.6283,4.6342,4.632,4.6356,4.6419,4.6437,4.6455,4.6555,4.6535,4.6566,4.6621,4.6661,4.6673,4.6683,4.6719,4.6732,4.6574,4.6574,4.6574,0,4.6168,4.6232,4.6226,4.6274,4.6296,4.6271,4.6326,4.6343,4.638,4.6395,4.6371,4.645,4.6464,4.6538,4.6562,4.6577,4.6592,4.6564,4.6672,4.6682,4.6692,4.6726,4.674,4.6578,4.6578,4.6577,4.6577,0,4.6286,4.633,4.6371,4.6409,4.6435,4.6486,4.6487,4.6514,4.6505,4.6509,4.657,4.6586,4.6624,4.664,4.6631,4.6713,4.6699,4.6674,4.663,4.671,4.6742,4.6755,4.6583,4.6582,4.6581,4.658,0,0,4.6408,4.6442,4.6457,4.6474,4.6502,4.6536,4.6586,4.6624,4.6648,4.6673,4.6715,4.677,4.6747,4.6767,4.676,4.6795,4.6874,4.6766,4.6766,4.6786,4.6965,4.6984,4.6999,4.6861,4.6864,4.6866,4.6963,0,4.6502,4.6591,4.6587,4.667,4.6711,4.6688,4.6731,4.6753,4.6758,4.6793,4.6798,4.6838,4.6805,4.6817,4.6851,4.6857,4.691,4.685,4.6899,4.6901,4.6894,4.7015,4.7035,4.7126,4.6975,4.6977,4.6979,0,4.6624,4.6656,4.6743,4.6766,4.6783,4.6822,4.6857,4.6891,4.6915,4.6916,4.6939,4.6927,4.6976,4.6932,4.7001,4.6961,4.698,4.6987,4.699,4.6994,4.6945,4.7023,4.7155,4.7169,4.6998,4.6997,4.6995,0,4.6704,4.6769,4.683,4.6845,4.6873,4.6901,4.6914,4.6936,4.6959,4.6989,4.7004,4.7039,4.7058,4.7085,4.7081,4.705,4.7151,4.7107,4.7153,4.7154,4.7176,4.7174,4.7312,4.7188,4.7188,4.7188,4.7188,0,4.681,4.6864,4.6867,4.6904,4.6964,4.6958,4.7018,4.7027,4.7047,4.7085,4.7067,4.7103,4.7096,4.7132,4.713,4.7187,4.7196,4.7198,4.7196,4.72,4.7199,4.7212,4.7206,4.7191,4.7191,4.719,4.7189,0,4.691,4.6914,4.6979,4.7001,4.7007,4.7051,4.7069,4.7104,4.7108,4.7157,4.7168,4.7174,4.7216,4.7215,4.7262,4.726,4.7331,4.7322,4.7323,4.7321,4.7368,4.7364,4.7519,4.754,4.7402,4.7404,4.7405,0,4.6977,4.7019,4.7046,4.7071,4.7086,4.7126,4.715,4.7146,4.7172,4.7203,4.7234,4.7274,4.7306,4.7373,4.7381,4.7416,4.7408,4.7461,4.7414,4.7416,4.741,4.7407,4.7411,4.747,4.7471,4.7473,4.7474,0,4.7096,4.7097,4.7133,4.717,4.72,4.7229,4.7255,4.7276,4.7275,4.7304,4.7347,4.7372,4.7421,4.746,4.7495,4.7507,4.749,4.7488,4.7501,4.7505,4.7504,4.7505,4.7348,4.7485,4.7484,4.7483,4.7482,4.7482,4.7182,4.7219,4.7244,4.7285,4.7304,4.733,4.7364,4.7373,4.7409,4.745,4.7444,4.7492,4.7515,4.756,4.7575,4.7612,4.7593,4.7612,4.7616,4.7621,4.7627,4.7498,4.7618,4.7618,4.7617,4.7617,4.7617,0,4.7301,4.7316,4.7354,4.7392,4.7425,4.7407,4.7436,4.7464,4.7507,4.753,4.7562,4.7611,4.765,4.7662,4.7699,4.7726,4.7719,4.7736,4.7734,4.7737,4.7641,4.7626,4.7741,4.7741,4.7741,4.7741,4.7741,4.7741,4.7366,4.7427,4.743,4.75,4.7514,4.7562,4.758,4.7603,4.7622,4.7678,4.7711,4.7719,4.7737,4.7776,4.781,4.7813,4.7827,4.7847,4.7847,4.7756,4.7744,4.7732,4.7718,4.785,4.7851,4.794,4.7941,4.7941]}]]